THORAD AGENA D DEB, 42520

Orbit data source: Space-Track

THORAD AGENA D DEB, 42520 is space debris in SSO originally from a launch on Wed, 08 Apr 1970 UTC launched from the Air Force Western Test Range (AFWTR). Debris objects in space refer to the collection of defunct objects orbiting the Earth. Examples of debris include non-operational satellites, rocket bodies, and fragments generated from explosions, collisions, or faulty payload assembly.

Loading next visibility...
Identifier
42520, 1970-025SA
Orbit
SSO
Country
Flag of USUS
Related business
Manufacturer
Unknown
Mission
Spacecraft
Bus & Motor
Unknown
Mass
Unknown
Launch date (UTC)
1970-04-08 (56 years ago)
Launch vehicle
Unknown
Launch site
Air Force Western Test Range (AFWTR)
Object type
Payload
Rocket body
Debris
Shape & HBR
Unknown shape, 0.1 m
Radar Cross Section
Small (<0.1 m²)

Expand to show TLE details & history
Last TLE update: 2 days ago

TLE from 2 days ago
0 THORAD AGENA D DEB
1 42520U 70025SA  26254.46368200  .00000679  00000-0  56877-3 0  9993
2 42520 100.2899 130.1946 0092431 235.7674 123.4698 13.90533612639139
Epoch: 2026-09-11T11:07Z
TLE epoch observation values (Epoch: 2026-09-11T11:07:42.124Z)
Latitude
-0.00005°
Longitude
-27.21758°
Altitude
967.256 km
Speed
7.349 km/s
True Right ascension
08h 40m 46s
True Declination
0° 00' 00"
Sunlit
Object was in daylight at epoch
Visualization orbit readout
Latitude
Unknown
Longitude
Unknown
Altitude
Unknown
Speed
Unknown
Apparent Right ascension
Unknown
Apparent Declination
Unknown
Sunlit
N/A
Visualization observer readout
Local Sidereal Time
02:10:04
Azimuth
Unknown
Elevation
Unknown
Doppler factor
Unknown
Orbital elements
Apogee altitude
991.535 km
Perigee altitude
856.546 km
Semi-major axis
7,302.177 km
Eccentricity
0.00924
Inclination
100.2899°
RAAN
130.1946°
Arg. of periapsis
235.7674°
True anomaly
124.34771°
Mean anomaly
123.4698°
Eccentric anomaly
123.90932°
Mean motion
3.47828 °/min
Orbital period
103.5 mins
BSTAR
0.00056877
Loading maneuver chart data...
Computing Atmospheric mass density...

Documentation

Showing up to 5 results
|